owner,sensor,date,latitude,longitude,vertical_datum,sea_water_practical_salinity,qcFlag 
SCCF RECON,ioos:station:SCCF:51:1,2011-08-01T00:00:00Z,26.5545,-82.1715,1.548,32.87,1111122 
SCCF RECON,ioos:station:SCCF:51:1,2011-08-01T01:00:00Z,26.5545,-82.1715,1.466,32.78,1111122 
SCCF RECON,ioos:station:SCCF:51:1,2011-08-01T02:00:00Z,26.5545,-82.1715,1.496,32.86,1111122 
SCCF RECON,ioos:station:SCCF:51:1,2011-08-01T03:00:00Z,26.5545,-82.1715,1.59,33.29,1111122 
SCCF RECON,ioos:station:SCCF:51:1,2011-08-01T04:00:00Z,26.5545,-82.1715,1.72,34.42,1111122 
SCCF RECON,ioos:station:SCCF:51:1,2011-08-01T05:00:00Z,26.5545,-82.1715,1.87,35.21,1111122 
SCCF RECON,ioos:station:SCCF:51:1,2011-08-01T06:00:00Z,26.5545,-82.1715,1.981,34.88,1111122 
SCCF RECON,ioos:station:SCCF:51:1,2011-08-01T07:00:00Z,26.5545,-82.1715,2.04,35.12,1111122 
SCCF RECON,ioos:station:SCCF:51:1,2011-08-01T08:00:00Z,26.5545,-82.1715,2.03,35.31,1111122 
SCCF RECON,ioos:station:SCCF:51:1,2011-08-01T09:00:00Z,26.5545,-82.1715,1.95,35.07,1111122 
SCCF RECON,ioos:station:SCCF:51:1,2011-08-01T10:00:00Z,26.5545,-82.1715,1.86,34.8,1111122 
SCCF RECON,ioos:station:SCCF:51:1,2011-08-01T11:00:00Z,26.5545,-82.1715,1.77,34.2,1111122 
SCCF RECON,ioos:station:SCCF:51:1,2011-08-01T12:00:00Z,26.5545,-82.1715,1.719,34.74,1111122 
SCCF RECON,ioos:station:SCCF:51:1,2011-08-01T13:00:00Z,26.5545,-82.1715,1.73,34.43,1111122 
SCCF RECON,ioos:station:SCCF:51:1,2011-08-01T14:00:00Z,26.5545,-82.1715,1.792,33.61,1111122 
SCCF RECON,ioos:station:SCCF:51:1,2011-08-01T15:00:00Z,26.5545,-82.1715,1.895,34.83,1111122 
SCCF RECON,ioos:station:SCCF:51:1,2011-08-01T16:00:00Z,26.5545,-82.1715,2.034,35.57,1111122 
SCCF RECON,ioos:station:SCCF:51:1,2011-08-01T17:00:00Z,26.5545,-82.1715,2.162,35.49,1111122 
SCCF RECON,ioos:station:SCCF:51:1,2011-08-01T18:00:00Z,26.5545,-82.1715,2.219,35.5,1111122 
SCCF RECON,ioos:station:SCCF:51:1,2011-08-01T19:00:00Z,26.5545,-82.1715,2.21,35.6,1111122 
SCCF RECON,ioos:station:SCCF:51:1,2011-08-01T20:00:00Z,26.5545,-82.1715,2.142,35.46,1111122 
SCCF RECON,ioos:station:SCCF:51:1,2011-08-01T21:00:00Z,26.5545,-82.1715,2.03,34.75,1111122 
SCCF RECON,ioos:station:SCCF:51:1,2011-08-01T22:00:00Z,26.5545,-82.1715,1.889,34.57,1111122 
SCCF RECON,ioos:station:SCCF:51:1,2011-08-01T23:00:00Z,26.5545,-82.1715,1.75,33.5,1111122 
SCCF RECON,ioos:station:SCCF:51:1,2011-08-02T00:00:00Z,26.5545,-82.1715,1.621,33.64,1111122 
SCCF RECON,ioos:station:SCCF:51:1,2011-08-02T01:00:00Z,26.5545,-82.1715,1.521,33.09,1111122 
SCCF RECON,ioos:station:SCCF:51:1,2011-08-02T02:00:00Z,26.5545,-82.1715,1.461,32.85,1111122 
SCCF RECON,ioos:station:SCCF:51:1,2011-08-02T03:00:00Z,26.5545,-82.1715,1.52,32.98,1111122 
SCCF RECON,ioos:station:SCCF:51:1,2011-08-02T04:00:00Z,26.5545,-82.1715,1.63,33.76,1111122 
SCCF RECON,ioos:station:SCCF:51:1,2011-08-02T05:00:00Z,26.5545,-82.1715,1.774,35.09,1111122 
SCCF RECON,ioos:station:SCCF:51:1,2011-08-02T06:00:00Z,26.5545,-82.1715,1.91,35.22,1111122 
SCCF RECON,ioos:station:SCCF:51:1,2011-08-02T07:00:00Z,26.5545,-82.1715,1.999,35.11,1111122 
SCCF RECON,ioos:station:SCCF:51:1,2011-08-02T08:00:00Z,26.5545,-82.1715,2.01,35.15,1111122 
SCCF RECON,ioos:station:SCCF:51:1,2011-08-02T09:00:00Z,26.5545,-82.1715,1.95,35.31,1111122 
SCCF RECON,ioos:station:SCCF:51:1,2011-08-02T10:00:00Z,26.5545,-82.1715,1.87,34.67,1111122 
SCCF RECON,ioos:station:SCCF:51:1,2011-08-02T11:00:00Z,26.5545,-82.1715,1.77,33.83,1111122 
SCCF RECON,ioos:station:SCCF:51:1,2011-08-02T12:00:00Z,26.5545,-82.1715,1.68,33.53,1111122 
SCCF RECON,ioos:station:SCCF:51:1,2011-08-02T13:00:00Z,26.5545,-82.1715,1.621,33.56,1111122 
SCCF RECON,ioos:station:SCCF:51:1,2011-08-02T14:00:00Z,26.5545,-82.1715,1.621,33.68,1111122 
SCCF RECON,ioos:station:SCCF:51:1,2011-08-02T15:00:00Z,26.5545,-82.1715,1.703,33.72,1111122 
SCCF RECON,ioos:station:SCCF:51:1,2011-08-02T16:00:00Z,26.5545,-82.1715,1.812,34.7,1111122 
SCCF RECON,ioos:station:SCCF:51:1,2011-08-02T17:00:00Z,26.5545,-82.1715,1.953,35.4,1111122 
SCCF RECON,ioos:station:SCCF:51:1,2011-08-02T18:00:00Z,26.5545,-82.1715,2.07,35.19,1111122 
SCCF RECON,ioos:station:SCCF:51:1,2011-08-02T19:00:00Z,26.5545,-82.1715,2.11,35.26,1111122 
SCCF RECON,ioos:station:SCCF:51:1,2011-08-02T20:00:00Z,26.5545,-82.1715,2.093,35.19,1111122 
SCCF RECON,ioos:station:SCCF:51:1,2011-08-02T21:00:00Z,26.5545,-82.1715,2.022,34.65,1111122 
SCCF RECON,ioos:station:SCCF:51:1,2011-08-02T22:00:00Z,26.5545,-82.1715,1.934,34.21,1111122 
SCCF RECON,ioos:station:SCCF:51:1,2011-08-02T23:00:00Z,26.5545,-82.1715,1.829,34.16,1111122 
SCCF RECON,ioos:station:SCCF:51:1,2011-08-03T00:00:00Z,26.5545,-82.1715,1.715,33.38,1111122 
SCCF RECON,ioos:station:SCCF:51:1,2011-08-03T01:00:00Z,26.5545,-82.1715,1.604,33.34,1111122 
SCCF RECON,ioos:station:SCCF:51:1,2011-08-03T02:00:00Z,26.5545,-82.1715,1.536,33.3,1111122 
SCCF RECON,ioos:station:SCCF:51:1,2011-08-03T03:00:00Z,26.5545,-82.1715,1.55,33.33,1111122 
SCCF RECON,ioos:station:SCCF:51:1,2011-08-03T04:00:00Z,26.5545,-82.1715,1.643,34.09,1111122 
SCCF RECON,ioos:station:SCCF:51:1,2011-08-03T05:00:00Z,26.5545,-82.1715,1.764,34.65,1111122 
SCCF RECON,ioos:station:SCCF:51:1,2011-08-03T06:00:00Z,26.5545,-82.1715,1.91,35.45,1111122 
SCCF RECON,ioos:station:SCCF:51:1,2011-08-03T07:00:00Z,26.5545,-82.1715,2.01,35.36,1111122 
SCCF RECON,ioos:station:SCCF:51:1,2011-08-03T08:00:00Z,26.5545,-82.1715,2.05,35.29,1111122 
SCCF RECON,ioos:station:SCCF:51:1,2011-08-03T09:00:00Z,26.5545,-82.1715,2.02,35.31,1111122 
SCCF RECON,ioos:station:SCCF:51:1,2011-08-03T10:00:00Z,26.5545,-82.1715,1.95,34.68,1111122 
SCCF RECON,ioos:station:SCCF:51:1,2011-08-03T11:00:00Z,26.5545,-82.1715,1.85,34.15,1111122 
SCCF RECON,ioos:station:SCCF:51:1,2011-08-03T12:00:00Z,26.5545,-82.1715,1.75,33.92,1111122 
SCCF RECON,ioos:station:SCCF:51:1,2011-08-03T13:00:00Z,26.5545,-82.1715,1.663,33.69,1111122 
SCCF RECON,ioos:station:SCCF:51:1,2011-08-03T14:00:00Z,26.5545,-82.1715,1.61,33.59,1111122 
SCCF RECON,ioos:station:SCCF:51:1,2011-08-03T15:00:00Z,26.5545,-82.1715,1.611,34.22,1111122 
SCCF RECON,ioos:station:SCCF:51:1,2011-08-03T16:00:00Z,26.5545,-82.1715,1.669,34.17,1111122 
SCCF RECON,ioos:station:SCCF:51:1,2011-08-03T17:00:00Z,26.5545,-82.1715,1.757,34.4,1111122 
SCCF RECON,ioos:station:SCCF:51:1,2011-08-03T18:00:00Z,26.5545,-82.1715,1.874,35.28,1111122 
SCCF RECON,ioos:station:SCCF:51:1,2011-08-03T19:00:00Z,26.5545,-82.1715,1.974,35.42,1111122 
SCCF RECON,ioos:station:SCCF:51:1,2011-08-03T20:00:00Z,26.5545,-82.1715,2.018,35.24,1111122 
SCCF RECON,ioos:station:SCCF:51:1,2011-08-03T21:00:00Z,26.5545,-82.1715,2.025,35.27,1111122 
SCCF RECON,ioos:station:SCCF:51:1,2011-08-03T22:00:00Z,26.5545,-82.1715,1.979,34.86,1111122 
SCCF RECON,ioos:station:SCCF:51:1,2011-08-03T23:00:00Z,26.5545,-82.1715,1.893,34.37,1111122 
SCCF RECON,ioos:station:SCCF:51:1,2011-08-04T00:00:00Z,26.5545,-82.1715,1.798,34.26,1111122 
SCCF RECON,ioos:station:SCCF:51:1,2011-08-04T01:00:00Z,26.5545,-82.1715,1.71,34.25,1111122 
SCCF RECON,ioos:station:SCCF:51:1,2011-08-04T02:00:00Z,26.5545,-82.1715,1.63,34.23,1111122 
SCCF RECON,ioos:station:SCCF:51:1,2011-08-04T03:00:00Z,26.5545,-82.1715,1.608,34.22,1111122 
SCCF RECON,ioos:station:SCCF:51:1,2011-08-04T04:00:00Z,26.5545,-82.1715,1.66,34.38,1111122 
SCCF RECON,ioos:station:SCCF:51:1,2011-08-04T05:00:00Z,26.5545,-82.1715,1.75,34.57,1111122 
SCCF RECON,ioos:station:SCCF:51:1,2011-08-04T06:00:00Z,26.5545,-82.1715,1.882,35.33,1111122 
SCCF RECON,ioos:station:SCCF:51:1,2011-08-04T07:00:00Z,26.5545,-82.1715,2.02,35.46,1111122 
SCCF RECON,ioos:station:SCCF:51:1,2011-08-04T08:00:00Z,26.5545,-82.1715,2.1,35.29,1111122 
SCCF RECON,ioos:station:SCCF:51:1,2011-08-04T09:00:00Z,26.5545,-82.1715,2.109,35.39,1111122 
SCCF RECON,ioos:station:SCCF:51:1,2011-08-04T10:00:00Z,26.5545,-82.1715,2.06,35.5,1111122 
SCCF RECON,ioos:station:SCCF:51:1,2011-08-04T11:00:00Z,26.5545,-82.1715,1.98,35.0,1111122 
SCCF RECON,ioos:station:SCCF:51:1,2011-08-04T12:00:00Z,26.5545,-82.1715,1.88,34.63,1111122 
SCCF RECON,ioos:station:SCCF:51:1,2011-08-04T13:00:00Z,26.5545,-82.1715,1.76,34.39,1111122 
SCCF RECON,ioos:station:SCCF:51:1,2011-08-04T14:00:00Z,26.5545,-82.1715,1.67,34.05,1111122 
SCCF RECON,ioos:station:SCCF:51:1,2011-08-04T15:00:00Z,26.5545,-82.1715,1.613,34.23,1111122 
SCCF RECON,ioos:station:SCCF:51:1,2011-08-04T16:00:00Z,26.5545,-82.1715,1.6,34.34,1111122 
SCCF RECON,ioos:station:SCCF:51:1,2011-08-04T17:00:00Z,26.5545,-82.1715,1.659,34.4,1111122 
SCCF RECON,ioos:station:SCCF:51:1,2011-08-04T18:00:00Z,26.5545,-82.1715,1.732,34.31,1111122 
SCCF RECON,ioos:station:SCCF:51:1,2011-08-04T19:00:00Z,26.5545,-82.1715,1.844,34.72,1111122 
SCCF RECON,ioos:station:SCCF:51:1,2011-08-04T20:00:00Z,26.5545,-82.1715,1.92,35.07,1111122 
SCCF RECON,ioos:station:SCCF:51:1,2011-08-04T21:00:00Z,26.5545,-82.1715,1.932,35.08,1111122 
SCCF RECON,ioos:station:SCCF:51:1,2011-08-04T22:00:00Z,26.5545,-82.1715,1.921,34.54,1111122 
SCCF RECON,ioos:station:SCCF:51:1,2011-08-04T23:00:00Z,26.5545,-82.1715,1.891,34.48,1111122 
SCCF RECON,ioos:station:SCCF:51:1,2011-08-05T00:00:00Z,26.5545,-82.1715,1.844,34.27,1111122 
SCCF RECON,ioos:station:SCCF:51:1,2011-08-05T01:00:00Z,26.5545,-82.1715,1.79,33.8,1111122 
SCCF RECON,ioos:station:SCCF:51:1,2011-08-05T02:00:00Z,26.5545,-82.1715,1.736,33.24,1111122 
SCCF RECON,ioos:station:SCCF:51:1,2011-08-05T03:00:00Z,26.5545,-82.1715,1.69,33.67,1111122 
SCCF RECON,ioos:station:SCCF:51:1,2011-08-05T04:00:00Z,26.5545,-82.1715,1.69,33.96,1111122 
SCCF RECON,ioos:station:SCCF:51:1,2011-08-05T05:00:00Z,26.5545,-82.1715,1.74,34.51,1111122 
SCCF RECON,ioos:station:SCCF:51:1,2011-08-05T06:00:00Z,26.5545,-82.1715,1.83,33.88,1111122 
SCCF RECON,ioos:station:SCCF:51:1,2011-08-05T07:00:00Z,26.5545,-82.1715,1.95,34.92,1111122 
SCCF RECON,ioos:station:SCCF:51:1,2011-08-05T08:00:00Z,26.5545,-82.1715,2.06,35.01,1111122 
SCCF RECON,ioos:station:SCCF:51:1,2011-08-05T09:00:00Z,26.5545,-82.1715,2.1,34.99,1111122 
SCCF RECON,ioos:station:SCCF:51:1,2011-08-05T10:00:00Z,26.5545,-82.1715,2.072,34.9,1111122 
SCCF RECON,ioos:station:SCCF:51:1,2011-08-05T11:00:00Z,26.5545,-82.1715,2.02,34.87,1111122 
SCCF RECON,ioos:station:SCCF:51:1,2011-08-05T12:00:00Z,26.5545,-82.1715,1.947,34.69,1111122 
SCCF RECON,ioos:station:SCCF:51:1,2011-08-05T13:00:00Z,26.5545,-82.1715,1.85,34.49,1111122 
SCCF RECON,ioos:station:SCCF:51:1,2011-08-05T14:00:00Z,26.5545,-82.1715,1.748,34.31,1111122 
SCCF RECON,ioos:station:SCCF:51:1,2011-08-05T15:00:00Z,26.5545,-82.1715,1.649,33.66,1111122 
SCCF RECON,ioos:station:SCCF:51:1,2011-08-05T16:00:00Z,26.5545,-82.1715,1.567,33.39,1111122 
SCCF RECON,ioos:station:SCCF:51:1,2011-08-05T17:00:00Z,26.5545,-82.1715,1.525,34.04,1111122 
SCCF RECON,ioos:station:SCCF:51:1,2011-08-05T18:00:00Z,26.5545,-82.1715,1.549,34.08,1111122 
SCCF RECON,ioos:station:SCCF:51:1,2011-08-05T19:00:00Z,26.5545,-82.1715,1.63,33.95,1111122 
SCCF RECON,ioos:station:SCCF:51:1,2011-08-05T20:00:00Z,26.5545,-82.1715,1.726,34.34,1111122 
SCCF RECON,ioos:station:SCCF:51:1,2011-08-05T21:00:00Z,26.5545,-82.1715,1.809,34.8,1111122 
SCCF RECON,ioos:station:SCCF:51:1,2011-08-05T22:00:00Z,26.5545,-82.1715,1.863,34.92,1111122 
SCCF RECON,ioos:station:SCCF:51:1,2011-08-05T23:00:00Z,26.5545,-82.1715,1.871,34.32,1111122 
SCCF RECON,ioos:station:SCCF:51:1,2011-08-06T00:00:00Z,26.5545,-82.1715,1.872,34.15,1111122 
SCCF RECON,ioos:station:SCCF:51:1,2011-08-06T01:00:00Z,26.5545,-82.1715,1.858,34.12,1111122 
SCCF RECON,ioos:station:SCCF:51:1,2011-08-06T02:00:00Z,26.5545,-82.1715,1.826,34.11,1111122 
SCCF RECON,ioos:station:SCCF:51:1,2011-08-06T03:00:00Z,26.5545,-82.1715,1.806,34.03,1111122 
SCCF RECON,ioos:station:SCCF:51:1,2011-08-06T04:00:00Z,26.5545,-82.1715,1.781,33.99,1111122 
SCCF RECON,ioos:station:SCCF:51:1,2011-08-06T05:00:00Z,26.5545,-82.1715,1.803,34.02,1111122 
SCCF RECON,ioos:station:SCCF:51:1,2011-08-06T06:00:00Z,26.5545,-82.1715,1.836,34.24,1111122 
SCCF RECON,ioos:station:SCCF:51:1,2011-08-06T07:00:00Z,26.5545,-82.1715,1.89,34.21,1111122 
SCCF RECON,ioos:station:SCCF:51:1,2011-08-06T08:00:00Z,26.5545,-82.1715,1.97,34.94,1111122 
SCCF RECON,ioos:station:SCCF:51:1,2011-08-06T09:00:00Z,26.5545,-82.1715,2.053,35.08,1111122 
SCCF RECON,ioos:station:SCCF:51:1,2011-08-06T10:00:00Z,26.5545,-82.1715,2.11,34.93,1111122 
SCCF RECON,ioos:station:SCCF:51:1,2011-08-06T11:00:00Z,26.5545,-82.1715,2.1,35.04,1111122 
SCCF RECON,ioos:station:SCCF:51:1,2011-08-06T12:00:00Z,26.5545,-82.1715,2.058,34.86,1111122 
SCCF RECON,ioos:station:SCCF:51:1,2011-08-06T13:00:00Z,26.5545,-82.1715,1.98,34.41,1111122 
SCCF RECON,ioos:station:SCCF:51:1,2011-08-06T14:00:00Z,26.5545,-82.1715,1.864,33.99,1111122 
SCCF RECON,ioos:station:SCCF:51:1,2011-08-06T15:00:00Z,26.5545,-82.1715,1.76,33.8,1111122 
SCCF RECON,ioos:station:SCCF:51:1,2011-08-06T16:00:00Z,26.5545,-82.1715,1.655,33.8,1111122 
SCCF RECON,ioos:station:SCCF:51:1,2011-08-06T17:00:00Z,26.5545,-82.1715,1.56,33.89,1111122 
SCCF RECON,ioos:station:SCCF:51:1,2011-08-06T18:00:00Z,26.5545,-82.1715,1.492,33.99,1111122 
SCCF RECON,ioos:station:SCCF:51:1,2011-08-06T19:00:00Z,26.5545,-82.1715,1.488,34.19,1111122 
SCCF RECON,ioos:station:SCCF:51:1,2011-08-06T20:00:00Z,26.5545,-82.1715,1.549,33.77,1111122 
SCCF RECON,ioos:station:SCCF:51:1,2011-08-06T21:00:00Z,26.5545,-82.1715,1.625,33.99,1111122 
SCCF RECON,ioos:station:SCCF:51:1,2011-08-06T22:00:00Z,26.5545,-82.1715,1.711,34.56,1111122 
SCCF RECON,ioos:station:SCCF:51:1,2011-08-06T23:00:00Z,26.5545,-82.1715,1.779,35.07,1111122 
SCCF RECON,ioos:station:SCCF:51:1,2011-08-07T00:00:00Z,26.5545,-82.1715,1.829,35.18,1111122 
SCCF RECON,ioos:station:SCCF:51:1,2011-08-07T01:00:00Z,26.5545,-82.1715,1.85,35.2,1111122 
SCCF RECON,ioos:station:SCCF:51:1,2011-08-07T02:00:00Z,26.5545,-82.1715,1.841,34.55,1111122 
SCCF RECON,ioos:station:SCCF:51:1,2011-08-07T03:00:00Z,26.5545,-82.1715,1.811,34.15,1111122 
SCCF RECON,ioos:station:SCCF:51:1,2011-08-07T04:00:00Z,26.5545,-82.1715,1.804,34.1,1111122 
SCCF RECON,ioos:station:SCCF:51:1,2011-08-07T05:00:00Z,26.5545,-82.1715,1.804,34.53,1111122 
SCCF RECON,ioos:station:SCCF:51:1,2011-08-07T06:00:00Z,26.5545,-82.1715,1.83,34.69,1111122 
SCCF RECON,ioos:station:SCCF:51:1,2011-08-07T07:00:00Z,26.5545,-82.1715,1.858,34.72,1111122 
SCCF RECON,ioos:station:SCCF:51:1,2011-08-07T08:00:00Z,26.5545,-82.1715,1.899,34.62,1111122 
SCCF RECON,ioos:station:SCCF:51:1,2011-08-07T09:00:00Z,26.5545,-82.1715,1.97,35.06,1111122 
SCCF RECON,ioos:station:SCCF:51:1,2011-08-07T10:00:00Z,26.5545,-82.1715,2.042,35.15,1111122 
SCCF RECON,ioos:station:SCCF:51:1,2011-08-07T11:00:00Z,26.5545,-82.1715,2.095,35.3,1111122 
SCCF RECON,ioos:station:SCCF:51:1,2011-08-07T12:00:00Z,26.5545,-82.1715,2.09,35.25,1111122 
SCCF RECON,ioos:station:SCCF:51:1,2011-08-07T13:00:00Z,26.5545,-82.1715,2.039,35.08,1111122 
SCCF RECON,ioos:station:SCCF:51:1,2011-08-07T14:00:00Z,26.5545,-82.1715,1.959,34.86,1111122 
SCCF RECON,ioos:station:SCCF:51:1,2011-08-07T15:00:00Z,26.5545,-82.1715,1.861,34.56,1111122 
SCCF RECON,ioos:station:SCCF:51:1,2011-08-07T16:00:00Z,26.5545,-82.1715,1.748,34.46,1111122 
SCCF RECON,ioos:station:SCCF:51:1,2011-08-07T17:00:00Z,26.5545,-82.1715,1.634,34.39,1111122 
SCCF RECON,ioos:station:SCCF:51:1,2011-08-07T18:00:00Z,26.5545,-82.1715,1.527,34.33,1111122 
SCCF RECON,ioos:station:SCCF:51:1,2011-08-07T19:00:00Z,26.5545,-82.1715,1.446,34.26,1111122 
SCCF RECON,ioos:station:SCCF:51:1,2011-08-07T20:00:00Z,26.5545,-82.1715,1.416,33.9,1111122 
SCCF RECON,ioos:station:SCCF:51:1,2011-08-07T21:00:00Z,26.5545,-82.1715,1.478,34.01,1111122 
SCCF RECON,ioos:station:SCCF:51:1,2011-08-07T22:00:00Z,26.5545,-82.1715,1.56,34.39,1111122 
SCCF RECON,ioos:station:SCCF:51:1,2011-08-07T23:00:00Z,26.5545,-82.1715,1.65,34.58,1111122 
SCCF RECON,ioos:station:SCCF:51:1,2011-08-08T00:00:00Z,26.5545,-82.1715,1.73,35.1,1111122 
SCCF RECON,ioos:station:SCCF:51:1,2011-08-08T01:00:00Z,26.5545,-82.1715,1.8,35.07,1111122 
SCCF RECON,ioos:station:SCCF:51:1,2011-08-08T02:00:00Z,26.5545,-82.1715,1.84,35.13,1111122 
SCCF RECON,ioos:station:SCCF:51:1,2011-08-08T03:00:00Z,26.5545,-82.1715,1.84,34.87,1111122 
SCCF RECON,ioos:station:SCCF:51:1,2011-08-08T04:00:00Z,26.5545,-82.1715,1.828,35.21,1111122 
SCCF RECON,ioos:station:SCCF:51:1,2011-08-08T05:00:00Z,26.5545,-82.1715,1.822,34.73,1111122 
SCCF RECON,ioos:station:SCCF:51:1,2011-08-08T06:00:00Z,26.5545,-82.1715,1.84,34.46,1111122 
SCCF RECON,ioos:station:SCCF:51:1,2011-08-08T07:00:00Z,26.5545,-82.1715,1.87,34.41,1111122 
SCCF RECON,ioos:station:SCCF:51:1,2011-08-08T08:00:00Z,26.5545,-82.1715,1.93,34.82,1111122 
SCCF RECON,ioos:station:SCCF:51:1,2011-08-08T09:00:00Z,26.5545,-82.1715,2.0,35.23,1111122 
SCCF RECON,ioos:station:SCCF:51:1,2011-08-08T10:00:00Z,26.5545,-82.1715,2.078,35.28,1111122 
SCCF RECON,ioos:station:SCCF:51:1,2011-08-08T11:00:00Z,26.5545,-82.1715,2.125,35.34,1111122 
SCCF RECON,ioos:station:SCCF:51:1,2011-08-08T12:00:00Z,26.5545,-82.1715,2.124,35.4,1111122 
SCCF RECON,ioos:station:SCCF:51:1,2011-08-08T13:00:00Z,26.5545,-82.1715,2.125,35.36,1111122 
SCCF RECON,ioos:station:SCCF:51:1,2011-08-08T14:00:00Z,26.5545,-82.1715,2.105,35.3,1111122 
SCCF RECON,ioos:station:SCCF:51:1,2011-08-08T15:00:00Z,26.5545,-82.1715,2.03,34.8,1111122 
SCCF RECON,ioos:station:SCCF:51:1,2011-08-08T16:00:00Z,26.5545,-82.1715,1.921,34.43,1111122 
SCCF RECON,ioos:station:SCCF:51:1,2011-08-08T17:00:00Z,26.5545,-82.1715,1.792,34.1,1111122 
SCCF RECON,ioos:station:SCCF:51:1,2011-08-08T18:00:00Z,26.5545,-82.1715,1.674,33.82,1111122 
SCCF RECON,ioos:station:SCCF:51:1,2011-08-08T19:00:00Z,26.5545,-82.1715,1.535,33.45,1111122 
SCCF RECON,ioos:station:SCCF:51:1,2011-08-08T20:00:00Z,26.5545,-82.1715,1.471,33.61,1111122 
SCCF RECON,ioos:station:SCCF:51:1,2011-08-08T21:00:00Z,26.5545,-82.1715,1.45,33.5,1111122 
SCCF RECON,ioos:station:SCCF:51:1,2011-08-08T22:00:00Z,26.5545,-82.1715,1.474,33.75,1111122 
SCCF RECON,ioos:station:SCCF:51:1,2011-08-08T23:00:00Z,26.5545,-82.1715,1.535,33.91,1111122 
SCCF RECON,ioos:station:SCCF:51:1,2011-08-09T00:00:00Z,26.5545,-82.1715,1.623,33.67,1111122 
SCCF RECON,ioos:station:SCCF:51:1,2011-08-09T01:00:00Z,26.5545,-82.1715,1.713,34.4,1111122 
SCCF RECON,ioos:station:SCCF:51:1,2011-08-09T02:00:00Z,26.5545,-82.1715,1.788,34.73,1111122 
SCCF RECON,ioos:station:SCCF:51:1,2011-08-09T03:00:00Z,26.5545,-82.1715,1.825,34.59,1111122 
SCCF RECON,ioos:station:SCCF:51:1,2011-08-09T04:00:00Z,26.5545,-82.1715,1.858,34.09,1111122 
SCCF RECON,ioos:station:SCCF:51:1,2011-08-09T05:00:00Z,26.5545,-82.1715,1.878,34.12,1111122 
SCCF RECON,ioos:station:SCCF:51:1,2011-08-09T06:00:00Z,26.5545,-82.1715,1.883,34.5,1111122 
SCCF RECON,ioos:station:SCCF:51:1,2011-08-09T07:00:00Z,26.5545,-82.1715,1.887,34.33,1111122 
SCCF RECON,ioos:station:SCCF:51:1,2011-08-09T08:00:00Z,26.5545,-82.1715,1.868,34.48,1111122 
SCCF RECON,ioos:station:SCCF:51:1,2011-08-09T09:00:00Z,26.5545,-82.1715,1.898,34.79,1111122 
SCCF RECON,ioos:station:SCCF:51:1,2011-08-09T10:00:00Z,26.5545,-82.1715,1.954,35.19,1111122 
SCCF RECON,ioos:station:SCCF:51:1,2011-08-09T11:00:00Z,26.5545,-82.1715,2.022,35.3,1111122 
SCCF RECON,ioos:station:SCCF:51:1,2011-08-09T12:00:00Z,26.5545,-82.1715,2.08,35.17,1111122 
SCCF RECON,ioos:station:SCCF:51:1,2011-08-09T13:00:00Z,26.5545,-82.1715,2.141,35.25,1111122 
SCCF RECON,ioos:station:SCCF:51:1,2011-08-09T14:00:00Z,26.5545,-82.1715,2.176,35.28,1111122 
SCCF RECON,ioos:station:SCCF:51:1,2011-08-09T15:00:00Z,26.5545,-82.1715,2.158,35.28,1111122 
SCCF RECON,ioos:station:SCCF:51:1,2011-08-09T16:00:00Z,26.5545,-82.1715,2.084,35.23,1111122 
SCCF RECON,ioos:station:SCCF:51:1,2011-08-09T17:00:00Z,26.5545,-82.1715,1.983,35.11,1111122 
SCCF RECON,ioos:station:SCCF:51:1,2011-08-09T18:00:00Z,26.5545,-82.1715,1.856,34.32,1111122 
SCCF RECON,ioos:station:SCCF:51:1,2011-08-09T19:00:00Z,26.5545,-82.1715,1.716,34.21,1111122 
SCCF RECON,ioos:station:SCCF:51:1,2011-08-09T20:00:00Z,26.5545,-82.1715,1.616,33.99,1111122 
SCCF RECON,ioos:station:SCCF:51:1,2011-08-09T21:00:00Z,26.5545,-82.1715,1.536,34.14,1111122 
SCCF RECON,ioos:station:SCCF:51:1,2011-08-09T22:00:00Z,26.5545,-82.1715,1.463,34.12,1111122 
SCCF RECON,ioos:station:SCCF:51:1,2011-08-09T23:00:00Z,26.5545,-82.1715,1.457,34.21,1111122 
SCCF RECON,ioos:station:SCCF:51:1,2011-08-10T00:00:00Z,26.5545,-82.1715,1.517,34.24,1111122 
SCCF RECON,ioos:station:SCCF:51:1,2011-08-10T01:00:00Z,26.5545,-82.1715,1.56,34.26,1111122 
SCCF RECON,ioos:station:SCCF:51:1,2011-08-10T02:00:00Z,26.5545,-82.1715,1.68,34.42,1111122 
SCCF RECON,ioos:station:SCCF:51:1,2011-08-10T03:00:00Z,26.5545,-82.1715,1.78,35.01,1111122 
SCCF RECON,ioos:station:SCCF:51:1,2011-08-10T04:00:00Z,26.5545,-82.1715,1.885,35.18,1111122 
SCCF RECON,ioos:station:SCCF:51:1,2011-08-10T05:00:00Z,26.5545,-82.1715,1.92,35.15,1111122 
SCCF RECON,ioos:station:SCCF:51:1,2011-08-10T06:00:00Z,26.5545,-82.1715,1.91,34.89,1111122 
SCCF RECON,ioos:station:SCCF:51:1,2011-08-10T07:00:00Z,26.5545,-82.1715,1.856,34.52,1111122 
SCCF RECON,ioos:station:SCCF:51:1,2011-08-10T08:00:00Z,26.5545,-82.1715,1.792,34.32,1111122 
SCCF RECON,ioos:station:SCCF:51:1,2011-08-10T09:00:00Z,26.5545,-82.1715,1.78,34.3,1111122 
SCCF RECON,ioos:station:SCCF:51:1,2011-08-10T10:00:00Z,26.5545,-82.1715,1.835,34.56,1111122 
SCCF RECON,ioos:station:SCCF:51:1,2011-08-10T11:00:00Z,26.5545,-82.1715,1.937,35.07,1111122 
SCCF RECON,ioos:station:SCCF:51:1,2011-08-10T12:00:00Z,26.5545,-82.1715,2.052,35.39,1111122 
SCCF RECON,ioos:station:SCCF:51:1,2011-08-10T13:00:00Z,26.5545,-82.1715,2.144,35.36,1111122 
SCCF RECON,ioos:station:SCCF:51:1,2011-08-10T14:00:00Z,26.5545,-82.1715,2.188,35.37,1111122 
SCCF RECON,ioos:station:SCCF:51:1,2011-08-10T15:00:00Z,26.5545,-82.1715,2.204,35.32,1111122 
SCCF RECON,ioos:station:SCCF:51:1,2011-08-10T16:00:00Z,26.5545,-82.1715,2.169,35.24,1111122 
SCCF RECON,ioos:station:SCCF:51:1,2011-08-10T17:00:00Z,26.5545,-82.1715,2.05,35.26,1111122 
SCCF RECON,ioos:station:SCCF:51:1,2011-08-10T18:00:00Z,26.5545,-82.1715,1.909,34.66,1111122 
SCCF RECON,ioos:station:SCCF:51:1,2011-08-10T19:00:00Z,26.5545,-82.1715,1.768,34.44,1111122 
SCCF RECON,ioos:station:SCCF:51:1,2011-08-10T20:00:00Z,26.5545,-82.1715,1.646,34.4,1111122 
SCCF RECON,ioos:station:SCCF:51:1,2011-08-10T21:00:00Z,26.5545,-82.1715,1.571,34.35,1111122 
SCCF RECON,ioos:station:SCCF:51:1,2011-08-10T22:00:00Z,26.5545,-82.1715,1.469,34.05,1111122 
SCCF RECON,ioos:station:SCCF:51:1,2011-08-10T23:00:00Z,26.5545,-82.1715,1.39,33.92,1111122 
SCCF RECON,ioos:station:SCCF:51:1,2011-08-11T00:00:00Z,26.5545,-82.1715,1.385,33.88,1111122 
SCCF RECON,ioos:station:SCCF:51:1,2011-08-11T01:00:00Z,26.5545,-82.1715,1.464,33.96,1111122 
SCCF RECON,ioos:station:SCCF:51:1,2011-08-11T02:00:00Z,26.5545,-82.1715,1.558,34.04,1111122 
SCCF RECON,ioos:station:SCCF:51:1,2011-08-11T03:00:00Z,26.5545,-82.1715,1.67,34.77,1111122 
SCCF RECON,ioos:station:SCCF:51:1,2011-08-11T04:00:00Z,26.5545,-82.1715,1.797,34.86,1111122 
SCCF RECON,ioos:station:SCCF:51:1,2011-08-11T05:00:00Z,26.5545,-82.1715,1.871,34.67,1111122 
SCCF RECON,ioos:station:SCCF:51:1,2011-08-11T06:00:00Z,26.5545,-82.1715,1.858,35.02,1111122 
SCCF RECON,ioos:station:SCCF:51:1,2011-08-11T07:00:00Z,26.5545,-82.1715,1.807,34.49,1111122 
SCCF RECON,ioos:station:SCCF:51:1,2011-08-11T08:00:00Z,26.5545,-82.1715,1.735,34.47,1111122 
SCCF RECON,ioos:station:SCCF:51:1,2011-08-11T09:00:00Z,26.5545,-82.1715,1.717,34.38,1111122 
SCCF RECON,ioos:station:SCCF:51:1,2011-08-11T10:00:00Z,26.5545,-82.1715,1.769,34.2,1111122 
SCCF RECON,ioos:station:SCCF:51:1,2011-08-11T11:00:00Z,26.5545,-82.1715,1.852,34.62,1111122 
SCCF RECON,ioos:station:SCCF:51:1,2011-08-11T12:00:00Z,26.5545,-82.1715,1.95,35.03,1111122 
SCCF RECON,ioos:station:SCCF:51:1,2011-08-11T13:00:00Z,26.5545,-82.1715,2.051,35.2,1111122 
SCCF RECON,ioos:station:SCCF:51:1,2011-08-11T14:00:00Z,26.5545,-82.1715,2.127,35.19,1111122 
SCCF RECON,ioos:station:SCCF:51:1,2011-08-11T15:00:00Z,26.5545,-82.1715,2.162,35.07,1111122 
SCCF RECON,ioos:station:SCCF:51:1,2011-08-11T16:00:00Z,26.5545,-82.1715,2.149,35.14,1111122 
SCCF RECON,ioos:station:SCCF:51:1,2011-08-11T17:00:00Z,26.5545,-82.1715,2.09,35.13,1111122 